Regional Weather Roundup
Issued by NWS

Home | Current Version | Previous Version | Graphics & Text | Print | Product List | Glossary On
Versions: 1 2 3 4 5 6 7 8 9 10 11 12 13 14 15 16 17 18 19 20 21 22 23 24 25 26 27 28 29 30 31 32 33 34 35 36 37 38 39 40 41 42 43 44 45 46 47 48 49 50
000
ASUS45 KABQ 231910
RWRNM
NEW MEXICO REGIONAL WEATHER ROUNDUP
NATIONAL WEATHER SERVICE ALBUQUERQUE NM
100 PM MDT MON APR 23 2018

NOTE: "FAIR" MEANS FEW OR NO CLOUDS BELOW 12,000 FEET AGL WITH NO
       SIGNIFICANT WEATHER OR OBSTRUCTIONS TO VISION.

      THIS PRODUCT IS RELEASED AS TWO VERSIONS.  ONE VERSION NEAR
      THE TOP OF THE HOUR CONTAINING PRELIMINARY DATA FROM ALBUQUERQUE
      AND OTHER STATIONS.  A FINAL VERSION WITH ADDITIONAL DATA IS
      ISSUED ABOUT 10 MINUTES AFTER THE HOUR.

NMZ501-503-504-510>518-232000-
NORTHWEST PLATEAU/NORTHCENTRAL MOUNTAINS

CITY           SKY/WX    TMP DP  RH WIND       PRES   REMARKS
FARMINGTON     FAIR      74  20  13 NW10G18   30.11F
LOS ALAMOS     PTSUNNY   63  29  27 S7        30.21F
SANTA FE       FAIR      72  26  18 W9        30.16F
TAOS           FAIR      69  23  17 W13G24    30.20F
ANGEL FIRE     FAIR      60  24  24 W17G24    30.25F

$$
NMZ402-403-502-505>509-232000-
WESTCENTRAL MOUNTAINS/SOUTHWEST MOUNTAINS

CITY           SKY/WX    TMP DP  RH WIND       PRES   REMARKS
GALLUP         FAIR      75  19  12 SW13G24   30.18F
GRANTS         PTSUNNY   71  16  12 NW9       30.19F
SILVER CITY    FAIR      76  28  16 S6        30.16F

$$
NMZ407-409-411-412-232000-
SOUTHERN DESERTS

CITY           SKY/WX    TMP DP  RH WIND       PRES   REMARKS
DEMING         FAIR      81  27  14 VRB7      30.11F
LAS CRUCES     FAIR      81  26  13 W3        30.12F
HOLLOMAN AFB   FAIR      82  33  17 SE6       30.13F
ALAMOGORDO     FAIR      77  34  20 S3        30.12F
T OR C         FAIR      80  21  11 S8        30.11F

$$
NMZ519>523-232000-
CENTRAL VALLEYS/CENTRAL HIGHLANDS

CITY           SKY/WX    TMP DP  RH WIND       PRES   REMARKS
ALBUQUERQUE    FAIR      73  25  16 SW5       30.14F
DOUBLE EAGLE   MOSUNNY   72  27  18 SE6G16    30.16F
MORIARTY ARPT  FAIR      74  25  16 SW8G18    30.17F
CLINES CORNERS FAIR      70  28  21 W14G26    30.22F
BELEN          FAIR      74  21  13 E3        30.14F
SOCORRO        FAIR      79  23  12 SE10      30.12F

$$
NMZ524>526-539-540-232000-
SOUTHCENTRAL MOUNTAINS

CITY           SKY/WX    TMP DP  RH WIND       PRES   REMARKS
RUIDOSO        NOT AVBL

$$
NMZ527>531-232000-
NORTHEAST HIGHLANDS/NORTHEAST PLAINS

CITY           SKY/WX    TMP DP  RH WIND       PRES   REMARKS
LAS VEGAS      FAIR      68  24  19 SW10G23   30.14F
RATON          PTSUNNY   67  35  30 VRB7      30.11F
CLAYTON        FAIR      66  40  38 S17G28    30.09F

$$
NMZ532>537-232000-
EASTCENTRAL PLAINS

CITY           SKY/WX    TMP DP  RH WIND       PRES   REMARKS
SANTA ROSA     FAIR      71  35  27 S10G20    30.10F
TUCUMCARI      FAIR      74  40  29 SW16      30.07F
CANNON AFB     FAIR      71  38  30 S12G18    30.14F
CLOVIS AIRPORT NOT AVBL

$$
NMZ028-029-538-232000-
SOUTHEAST PLAINS

CITY           SKY/WX    TMP DP  RH WIND       PRES   REMARKS
ROSWELL        FAIR      74  37  26 S10G21    30.10F
ARTESIA        FAIR      75  37  25 SE13G18   30.10F
CARLSBAD       FAIR      77  38  24 SE13      30.08F
HOBBS          SUNNY     73  34  23 S8G16     30.13F


$$



USA.gov is the U.S. government's official web portal to all federal, state and local government web resources and services.